Regional Weather Roundup
Issued by NWS Kansas City/Pleasant Hill, MO

Home | Current Version | Previous Version | Text Only | Print | Product List | Glossary On
Versions: 1 2 3 4 5 6 7 8 9 10 11 12 13 14 15 16 17 18 19 20 21 22 23 24 25 26 27 28 29 30 31 32 33 34 35 36 37 38 39 40 41 42 43 44 45 46 47 48 49 50
000
ASUS43 KEAX 281710
RWREAX

WEATHER ROUNDUP FOR EASTERN KANSAS AND NORTHWEST MISSOURI
NATIONAL WEATHER SERVICE KANSAS CITY/PLEASANT HILL MO
1200 PM CDT WED SEP 28 2016

KSZ040-057-103>105-MOZ028-029-037-043-281800-
...KANSAS CITY METROPOLITAN AREA...

CITY           SKY/WX    TMP DP  RH WIND       PRES   REMARKS
K.C. INTL      MOSUNNY   62  46  55 N15       30.11R
K.C. DOWNTOWN  SUNNY     65  46  50 N12       30.09R
LEES SUMMIT    SUNNY     62  46  55 N15       30.09R
OLATHE - IXD   SUNNY     64  47  53 N16G22    30.09R
OLATHE - OJC   SUNNY     63  45  51 N20       30.09R
LAWRENCE       SUNNY     64  47  53 NW15G22   30.10R

$$

MOZ001>008-011>017-020>025-030>033-038>040-044>046-053-054-281800-
...NORTHERN AND CENTRAL MISSOURI...

CITY           SKY/WX    TMP DP  RH WIND       PRES   REMARKS
ST. JOSEPH     MOSUNNY   62  45  53 N17       30.13R
WHITEMAN AFB   MOSUNNY   64  46  52 N17       30.04R
CLINTON        NOT AVBL
SEDALIA        SUNNY     67  45  45 N18       30.05R
WARSAW         NOT AVBL
CHILLICOTHE      N/A     62  47  57 VRB6G18   30.10R
KIRKSVILLE     MOSUNNY   61  46  57 N14G24    30.07R

$$

MOZ041-047>049-056>058-063>065-088>090-097-281800-
...EASTERN AND SOUTHERN MISSOURI...

CITY           SKY/WX    TMP DP  RH WIND       PRES   REMARKS
ST. LOUIS INTL MOSUNNY   66  45  46 N14G24    29.95R
SPIRIT OF STL  PTSUNNY   65  47  52 N16       29.95R
COLUMBIA       SUNNY     65  46  50 N18       30.02R
JEFFERSON CITY SUNNY     64  44  48 N12G21    30.01R
ROLLA          SUNNY     65  47  52 N12       29.97R
OSAGE BEACH    SUNNY     66  46  48 N10G18    30.01R
SPRINGFIELD    SUNNY     73  46  38 N16       29.99R
BRANSON        SUNNY     75  52  43 NW10      29.98S
JOPLIN         SUNNY     73  48  41 N15G23    30.03R
WEST PLAINS    SUNNY     75  51  43 NW9       29.96R

$$

IAZ060-094-KSZ022-034>040-054-083-096-NEZ052-066-093-281800-
...KANSAS...SOUTHEAST NEBRASKA AND IOWA...

CITY           SKY/WX    TMP DP  RH WIND       PRES   REMARKS
TOPEKA         SUNNY     63  47  55 N12G24    30.12R
MANHATTAN      SUNNY     66  44  45 N12G21    30.14R
EMPORIA        SUNNY     68  42  38 N16G24    30.10R
CHANUTE        LGT RAIN  71  43  36 N15G23    30.07R
WICHITA        SUNNY     74  47  38 N13       30.12R
OMAHA          MOSUNNY   59  45  59 N15       30.19R
LINCOLN        SUNNY     63  46  54 N12       30.21R
FALLS CITY     SUNNY     61  46  57 N13G22    30.14R
LAMONI         PTSUNNY   60  48  64 N13       30.11R
DES MOINES     CLOUDY    58  47  66 NW13      30.12R

$$




USA.gov is the U.S. government's official web portal to all federal, state and local government web resources and services.